This is the latest recevied weather packets stored in our database for station/object HA5CD-6. If no packets are shown the sender has not sent any weather packets the latest 10 day(s).
| Time | Temp. | Humidity | Pressure | Rain* | Wind** | Luminosity | Snow |
|---|---|---|---|---|---|---|---|
| 1777568463 | 17.22° C | 21% | 1002 hPa | - | - | - | - |
| 1777567863 | 18.89° C | 19% | 1002 hPa | - | - | - | - |
| 1777567263 | 19.44° C | 19% | 1002 hPa | - | - | - | - |
| 1777566662 | 15° C | 23% | 1002 hPa | - | - | - | - |
| 1777566062 | 17.78° C | 20% | 1002 hPa | - | - | - | - |
| 1777565462 | 18.89° C | 19% | 1002 hPa | - | - | - | - |
| 1777564862 | 18.89° C | 18% | 1002 hPa | - | - | - | - |
| 1777564262 | 18.89° C | 19% | 1002 hPa | - | - | - | - |
| 1777563662 | 18.33° C | 19% | 1002 hPa | - | - | - | - |
| 1777563062 | 20° C | 18% | 1002 hPa | - | - | - | - |
| 1777562461 | 19.44° C | 17% | 1002 hPa | - | - | - | - |
| 1777561861 | 21.11° C | 16% | 1002 hPa | - | - | - | - |
| 1777561261 | 20.56° C | 17% | 1002 hPa | - | - | - | - |
| 1777560661 | 20.56° C | 17% | 1002 hPa | - | - | - | - |
| 1777560061 | 20° C | 17% | 1002 hPa | - | - | - | - |
| 1777559461 | 20.56° C | 17% | 1002 hPa | - | - | - | - |
| 1777558860 | 20° C | 17% | 1002 hPa | - | - | - | - |
| 1777558260 | 20.56° C | 16% | 1002 hPa | - | - | - | - |
| 1777557660 | 18.89° C | 17% | 1002 hPa | - | - | - | - |
| 1777557060 | 20° C | 16% | 1002 hPa | - | - | - | - |
| 1777556459 | 19.44° C | 18% | 1003 hPa | - | - | - | - |
| 1777555859 | 20° C | 17% | 1003 hPa | - | - | - | - |
| 1777555258 | 18.89° C | 19% | 1003 hPa | - | - | - | - |
| 1777554660 | 20° C | 17% | 1003 hPa | - | - | - | - |
| 1777554058 | 18.33° C | 19% | 1003 hPa | - | - | - | - |
* Rain since midnight (hover to see other rain measurements)
** Current wind speed in m/s (hover to see current wind gust speed)